TimeEDT,TemperatureF,Dew PointF,Humidity,Sea Level PressureIn,VisibilityMPH,Wind Direction,Wind SpeedMPH,Gust SpeedMPH,PrecipitationIn,Events,Conditions,WindDirDegrees,DateUTC
12:54 AM,63.0,50.0,63,29.87,10.0,WSW,4.6,18.4,N/A,,Overcast,250,2012-10-05 04:54:00
1:54 AM,59.0,44.1,58,29.89,10.0,West,9.2,-,N/A,,Scattered Clouds,270,2012-10-05 05:54:00
2:54 AM,55.9,43.0,62,29.90,10.0,West,10.4,-,N/A,,Partly Cloudy,260,2012-10-05 06:54:00
3:54 AM,53.1,42.1,66,29.91,10.0,West,8.1,-,N/A,,Clear,280,2012-10-05 07:54:00
4:54 AM,50.0,39.9,68,29.91,10.0,WSW,5.8,-,N/A,,Clear,250,2012-10-05 08:54:00
5:54 AM,48.9,39.9,71,29.94,10.0,West,4.6,-,N/A,,Mostly Cloudy,260,2012-10-05 09:54:00
6:54 AM,46.9,37.9,71,29.95,10.0,WSW,5.8,-,N/A,,Clear,250,2012-10-05 10:54:00
7:54 AM,45.0,37.9,76,29.96,10.0,SW,5.8,-,N/A,,Overcast,220,2012-10-05 11:54:00
8:02 AM,44.6,37.4,76,29.95,10.0,SSW,6.9,-,N/A,,Mostly Cloudy,210,2012-10-05 12:02:00
8:54 AM,46.9,37.9,71,29.96,10.0,WSW,8.1,-,N/A,,Mostly Cloudy,240,2012-10-05 12:54:00
9:54 AM,48.9,37.0,64,29.96,10.0,SW,9.2,17.3,N/A,,Mostly Cloudy,230,2012-10-05 13:54:00
10:54 AM,48.9,36.0,61,29.95,10.0,West,10.4,21.9,N/A,,Mostly Cloudy,260,2012-10-05 14:54:00
11:54 AM,54.0,36.0,51,29.94,10.0,WSW,10.4,18.4,N/A,,Scattered Clouds,250,2012-10-05 15:54:00
12:54 PM,55.0,35.1,47,29.94,10.0,SW,17.3,23.0,N/A,,Partly Cloudy,230,2012-10-05 16:54:00
1:54 PM,55.0,33.1,43,29.91,10.0,WSW,13.8,24.2,N/A,,Partly Cloudy,240,2012-10-05 17:54:00
2:54 PM,55.9,32.0,40,29.90,10.0,West,12.7,20.7,N/A,,Scattered Clouds,260,2012-10-05 18:54:00
3:54 PM,55.9,30.9,39,29.89,10.0,WSW,11.5,21.9,N/A,,Mostly Cloudy,250,2012-10-05 19:54:00
4:54 PM,57.0,28.9,34,29.87,10.0,WSW,10.4,19.6,N/A,,Clear,240,2012-10-05 20:54:00
5:54 PM,55.0,28.9,37,29.88,10.0,SW,9.2,-,N/A,,Clear,230,2012-10-05 21:54:00
6:54 PM,53.1,28.9,40,29.88,10.0,WSW,6.9,-,N/A,,Clear,250,2012-10-05 22:54:00
7:54 PM,50.0,34.0,54,29.90,10.0,Variable,5.8,-,N/A,,Clear,0,2012-10-05 23:54:00
8:54 PM,50.0,35.1,57,29.88,10.0,WSW,3.5,-,N/A,,Mostly Cloudy,240,2012-10-06 00:54:00
9:54 PM,48.9,34.0,56,29.88,10.0,WSW,8.1,-,N/A,,Overcast,240,2012-10-06 01:54:00
10:54 PM,48.9,35.1,59,29.86,10.0,SW,6.9,-,N/A,,Overcast,230,2012-10-06 02:54:00
11:54 PM,48.0,34.0,58,29.86,10.0,WNW,9.2,-,N/A,,Overcast,300,2012-10-06 03:54:00